Aérodrome :
LOGIN :

S'inscrire | Disclaimer

   EN    FR    IT 

 










Légende :    VFR   VFR Marginal   IFR   IFR Intensif   IFR Très Intensif
Visi : 
Plafond : 
>= 8 km
>= 3000ft
5 à 8 km
1000 à 3000 ft
1500m à 5 km
500 à 1000 ft
800 à 1500m
200 à 500 ft
< 800m
< 200 ft
Symboles :   Orages  Brouillard  Fortes neiges  Fortes précipitations  Vent > 20 kt
SIGMETs :   Divers  Orages  Givrage  Turbulence  Onde Orograph.  Cendres Volcan.







- Altitude de l'aérodrome : 286 ft
- Code IATA : FFD


EGVA - RAF Fairford

DERNIER METAR :
  • 230306Z AUTO 26004KT M M FEW014 SCT030 SCT039 BKN046 OVC060 M01/M02 A2945 RMK AO2 UPE06 SLP980 RVRNO $

METARs EXPIRÉS :
  • 230252Z AUTO 00000KT M -UP SCT015 BKN030 OVC038 M01/M01 A2945 RMK AO2 UPB33E42UPB52 SLP980 RVRNO $

TAF AMD TAF EGVA
Valide du 23 à 02h jusqu'au 23 à 10h UTC


230231Z 2302/2310 VRB06KT 9999 BKN020 QNH2945INS
BECMG 2305/2306 32009KT 9999 BKN015 OVC030 QNH2940INS TX07/2310Z TNM05/2306Z LAST NO AMDS AFT 2302Z
Pas de NOTAMs connus pour ce terrain.



MET'MAP, la Météo Aéronautique d'un coup d'oeil ! - Copyright ORBIFLY Décembre 2007 - Disclaimer

ORBIFLY MET'MAP TEAM :

Programmation & Développement : Alexandra Zaïnal
Conception & Développement : Baudouin d'Aumeries
Co-Programmation & Développement : Marc-Olivier Méhu
Soutien technique & logistique : Manuel Goepfert

Contact : metmap@orbifly.com




SOURCES & CREDITS :

   NOAA